FW1271 Weather Reports


time (UTC)temp
C
wind
direction
speed
KPH
gust
KPH
rain 1hr
cm
rain 24hr
cm
rain mn
cm
humidity
%
barometer
mb
20260507023014 20 360 0.0 4.8 0.00 0.00 0.00 67 1016.6
20260507022004 20 360 1.6 6.4 0.00 0.00 0.00 65 1016.6
20260507021004 20 360 0.0 6.4 0.00 0.00 0.00 63 1016.5
20260507020004 21 360 0.0 8.0 0.00 0.00 0.00 62 1016.5
20260507015004 22 192 0.0 6.4 0.00 0.00 0.00 60 1016.4
20260507014004 22 227 0.0 6.4 0.00 0.00 0.00 58 1016.3
20260507013004 22 189 1.6 9.7 0.00 0.00 0.00 57 1016.4
20260507011004 23 184 1.6 4.8 0.00 0.00 0.00 55 1016.2
20260507010004 23 221 0.0 8.0 0.00 0.00 0.00 55 1016.2
20260507005004 24 221 0.0 11.3 0.00 0.00 0.00 52 1016.2
20260507004003 25 70 0.0 6.4 0.00 0.00 0.00 52 1016.1
20260507003004 25 115 3.2 6.4 0.00 0.00 0.00 51 1016.0
20260507002004 25 227 0.0 9.7 0.00 0.00 0.00 51 1016.1
20260507001003 26 237 1.6 9.7 0.00 0.00 0.00 49 1016.1
20260507000004 26 266 3.2 11.3 0.00 0.00 0.00 49 1016.0
20260506235004 27 229 3.2 9.7 0.00 0.00 0.00 47 1016.0
20260506234003 27 83 3.2 4.8 0.00 0.00 0.00 47 1016.1
20260506233005 27 173 1.6 9.7 0.00 0.00 0.00 48 1016.1
20260506232003 27 94 1.6 12.9 0.00 0.00 0.00 47 1016.1
20260506231004 27 67 3.2 9.7 0.00 0.00 0.00 47 1016.2
20260506230004 27 69 4.8 12.9 0.00 0.00 0.00 46 1016.2
20260506225003 27 119 3.2 6.4 0.00 0.00 0.00 47 1016.3
20260506224004 27 88 6.4 6.4 0.00 0.00 0.00 47 1016.4
20260506223004 27 63 1.6 8.0 0.00 0.00 0.00 47 1016.5
20260506222003 26 236 0.0 8.0 0.00 0.00 0.00 47 1016.6
20260506221004 26 335 3.2 8.0 0.00 0.00 0.00 47 1016.7
20260506220003 26 69 3.2 6.4 0.00 0.00 0.00 48 1016.9
20260506214003 26 192 1.6 8.0 0.00 0.00 0.00 47 1017.2
20260506213004 26 236 3.2 4.8 0.00 0.00 0.00 48 1017.3
20260506212004 26 259 1.6 6.4 0.00 0.00 0.00 48 1017.4
20260506211004 26 107 0.0 9.7 0.00 0.00 0.00 49 1017.6
20260506210003 26 77 0.0 6.4 0.00 0.00 0.00 49 1017.6
20260506204004 25 129 0.0 4.8 0.00 0.00 0.00 52 1017.8
20260506203003 25 281 1.6 6.4 0.00 0.00 0.00 51 1017.9
20260506202003 24 248 1.6 4.8 0.00 0.00 0.00 54 1018.1
20260506201004 24 219 1.6 8.0 0.00 0.00 0.00 53 1018.3
20260506200004 23 162 0.0 8.0 0.00 0.00 0.00 54 1018.2
20260506195004 23 122 1.6 6.4 0.00 0.00 0.00 55 1018.3
20260506193004 22 61 1.6 6.4 0.00 0.00 0.00 57 1018.5
20260506192004 22 76 1.6 6.4 0.00 0.00 0.00 59 1018.6
20260506191003 21 360 1.6 6.4 0.00 0.00 0.00 61 1018.7
20260506190004 22 360 1.6 8.0 0.00 0.00 0.00 60 1018.8
20260506185004 21 360 0.0 6.4 0.00 0.00 0.00 60 1018.8
20260506184004 21 360 0.0 6.4 0.00 0.00 0.00 61 1018.9
20260506183005 20 141 3.2 8.0 0.00 0.00 0.00 63 1019.1
20260506182003 20 256 1.6 6.4 0.00 0.00 0.00 64 1019.1
20260506180005 18 146 0.0 4.8 0.00 0.00 0.00 68 1019.2
20260506174004 18 242 3.2 4.8 0.00 0.00 0.00 69 1019.2
20260506173009 17 276 1.6 6.4 0.00 0.00 0.00 71 1019.2
20260506171004 17 79 1.6 6.4 0.00 0.00 0.00 74 1019.4
20260506170004 16 351 1.6 6.4 0.00 0.00 0.00 74 1019.4
20260506164004 16 235 0.0 3.2 0.00 0.00 0.00 77 1019.4
20260506163003 15 236 0.0 4.8 0.00 0.00 0.00 78 1019.3
20260506162004 15 246 0.0 6.4 0.00 0.00 0.00 77 1019.4
20260506161004 15 238 0.0 3.2 0.00 0.00 0.00 78 1019.4
20260506160004 15 238 1.6 4.8 0.00 0.00 0.00 78 1019.4
20260506155004 15 199 1.6 4.8 0.00 0.00 0.00 79 1019.4
20260506154003 15 223 0.0 6.4 0.00 0.00 0.00 79 1019.3
20260506153004 15 36 0.0 4.8 0.00 0.00 0.00 80 1019.3
20260506150005 14 46 1.6 4.8 0.00 0.00 0.00 82 1019.4
20260506144003 14 258 0.0 0.0 0.00 0.00 0.00 83 1019.4
20260506143005 14 258 0.0 0.0 0.00 0.00 0.00 83 1019.3
20260506142004 13 258 0.0 0.0 0.00 0.00 0.00 83 1019.3
20260506141004 13 258 0.0 0.0 0.00 0.00 0.00 83 1019.2
20260506140005 13 258 0.0 0.0 0.00 0.00 0.00 83 1019.1
20260506135004 13 258 0.0 0.0 0.00 0.00 0.00 83 1018.8
20260506134004 13 258 0.0 0.0 0.00 0.00 0.00 83 1018.7
20260506132004 13 258 0.0 0.0 0.00 0.00 0.00 83 1018.5
20260506131003 13 258 0.0 0.0 0.00 0.00 0.00 83 1018.4
20260506130005 13 258 0.0 0.0 0.00 0.00 0.00 82 1018.3
20260506125004 13 258 0.0 0.0 0.00 0.00 0.00 82 1018.3
20260506124003 13 258 0.0 0.0 0.00 0.00 0.00 82 1018.2
20260506123004 13 258 0.0 0.0 0.00 0.00 0.00 82 1018.3
20260506121004 13 255 0.0 0.0 0.00 0.00 0.00 83 1018.1
20260506120004 13 255 0.0 0.0 0.00 0.00 0.00 82 1018.1
20260506115004 13 255 0.0 0.0 0.00 0.00 0.00 82 1018.0
20260506114004 13 255 0.0 0.0 0.00 0.00 0.00 82 1017.9
20260506113003 13 255 0.0 0.0 0.00 0.00 0.00 82 1017.9
20260506110004 13 255 0.0 0.0 0.00 0.00 0.00 82 1017.8
20260506105003 13 255 0.0 0.0 0.00 0.00 0.00 82 1017.7
20260506102003 13 255 0.0 0.0 0.00 0.00 0.00 82 1017.7
20260506101004 13 255 0.0 0.0 0.00 0.00 0.00 82 1017.8
20260506100004 13 255 0.0 0.0 0.00 0.00 0.00 82 1017.7
20260506095004 13 255 0.0 0.0 0.00 0.00 0.00 82 1017.6
20260506094003 13 255 0.0 0.0 0.00 0.00 0.00 81 1017.6
20260506093003 14 255 0.0 0.0 0.00 0.00 0.00 81 1017.8
20260506092004 14 255 0.0 0.0 0.00 0.00 0.00 81 1017.9
20260506091004 14 255 0.0 0.0 0.00 0.00 0.00 81 1017.8
20260506085004 14 250 0.0 0.0 0.00 0.00 0.00 81 1017.7
20260506084003 14 250 0.0 0.0 0.00 0.00 0.00 81 1017.7
20260506082003 14 250 0.0 0.0 0.00 0.00 0.00 80 1017.8
20260506081004 14 250 0.0 0.0 0.00 0.00 0.00 80 1017.7
20260506073004 14 138 0.0 0.0 0.00 0.00 0.00 79 1017.4
20260506072004 14 138 0.0 0.0 0.00 0.00 0.00 79 1017.4
20260506071003 14 138 0.0 0.0 0.00 0.00 0.00 78 1017.3
20260506062004 15 242 0.0 0.0 0.00 0.00 0.00 77 1017.0
20260506061003 15 242 0.0 0.0 0.00 0.00 0.00 76 1016.9
20260506051004 15 243 0.0 0.0 0.00 0.00 0.00 75 1016.5
20260506045004 15 243 0.0 0.0 0.00 0.00 0.00 74 1016.3
20260506044004 15 243 0.0 3.2 0.00 0.00 0.00 74 1016.3
20260506043004 15 243 0.0 1.6 0.00 0.00 0.00 74 1016.1
20260506041004 15 243 0.0 1.6 0.00 0.00 0.00 74 1015.9
20260506040005 15 243 0.0 1.6 0.00 0.00 0.00 74 1015.8
20260506035004 15 243 0.0 3.2 0.00 0.00 0.00 74 1015.7
20260506033004 15 243 0.0 0.0 0.00 0.00 0.00 73 1015.4
20260506032004 15 243 0.0 0.0 0.00 0.00 0.00 73 1015.3
20260506031003 15 243 0.0 1.6 0.00 0.00 0.00 73 1015.2
20260506030004 16 243 0.0 0.0 0.00 0.00 0.00 72 1015.1
20260506025004 16 243 0.0 3.2 0.00 0.00 0.00 72 1014.9
20260506024004 16 243 1.6 3.2 0.00 0.00 0.00 72 1014.7